Regional Weather Roundup
Issued by NWS

Home | Current Version | Previous Version | Text Only | Print | Product List | Glossary On
Versions: 1 2 3 4 5 6 7 8 9 10 11 12 13 14 15 16 17 18 19 20 21 22 23 24 25 26 27 28 29 30 31 32 33 34 35 36 37 38 39 40 41 42 43 44 45 46 47 48 49 50
000
ASUS44 KOUN 101210
RWROK

WEATHER ROUNDUP FOR OKLAHOMA
NATIONAL WEATHER SERVICE NORMAN OK
600 AM CST SAT DEC 10 2016

NOTE: "FAIR" INDICATES FEW OR NO CLOUDS BELOW 12,000 FEET WITH NO
      SIGNIFICANT WEATHER AND/OR OBSTRUCTIONS TO VISIBILITY.

OKZ001>007-009>012-014-015-017-101300-
NORTHWEST OKLAHOMA AND THE PANHANDLE

CITY           SKY/WX    TMP DP  RH WIND       PRES   REMARKS
GAGE           CLOUDY    25  17  72 S20G26    30.21F WCI  11
6HR MIN TEMP:  24; 6HR MAX TEMP:  27;

GUYMON         CLOUDY    20  18  92 SE5       30.09F WCI  13
ENID/WOODRING  CLOUDY    32  21  64 SE9       30.34F WCI  24
$$

OKZ016-021>023-033>039-044-045-101300-
SOUTHWEST OKLAHOMA

CITY           SKY/WX    TMP DP  RH WIND       PRES   REMARKS
LAWTON/REGL    CLOUDY    36  22  56 SE12      30.36F WCI  28
6HR MIN TEMP:  28; 6HR MAX TEMP:  36;

LAWTON/FT SILL CLOUDY    35  23  62 SE9       30.33F WCI  28
FREDERICK      CLOUDY    31  24  75 SE12      30.31F WCI  22
CLINTON        CLOUDY    26  19  74 S9        30.31R WCI  17
HOBART         CLOUDY    31  21  66 S16       30.31F WCI  20
ALTUS AFB      CLOUDY    27  22  79 SE9       30.30F WCI  18
$$

OKZ018>020-024>031-101300-
CENTRAL OKLAHOMA

CITY           SKY/WX    TMP DP  RH WIND       PRES   REMARKS
OKLAHOMA CITY  CLOUDY    35  20  54 S13       30.37S WCI  26
6HR MIN TEMP:  33; 6HR MAX TEMP:  35;

OKC/WILEY POST CLOUDY    35  19  52 S14       30.37S WCI  26
OKC/TINKER AFB CLOUDY    35  20  53 S12       30.36F WCI  27
STILLWATER     CLOUDY    34  18  52 SE10      30.40F WCI  26
GUTHRIE        CLOUDY    35  20  54 SE9       30.38F WCI  28
$$

OKZ008-013-054>072-101300-
NORTHEAST OKLAHOMA

CITY           SKY/WX    TMP DP  RH WIND       PRES   REMARKS
TULSA          CLOUDY    36  20  52 S10       30.44F WCI  28
6HR MIN TEMP:  35; 6HR MAX TEMP:  37;

TULSA/JONES    CLOUDY    36  18  48 S5        30.46S WCI  32
PONCA CITY     CLOUDY    33  17  51 SE12      30.38F WCI  24
BARTLESVILLE   CLOUDY    33  20  58 SE5       30.45F WCI  29
MUSKOGEE       CLOUDY    35  23  61 SE7       30.49F WCI  29
$$

OKZ032-040>043-046>053-073>077-101300-
SOUTH CENTRAL/SOUTHEAST OKLAHOMA

CITY           SKY/WX    TMP DP  RH WIND       PRES   REMARKS
ARDMORE/DWNTWN CLOUDY    36  25  64 SE8       30.43F WCI  29
MCALESTER      CLOUDY    36  19  50 SE5       30.46F WCI  32
$$





USA.gov is the U.S. government's official web portal to all federal, state and local government web resources and services.